Showing default

FLOCK 4Q 25, 58303

Orbit data source: Space-Track

FLOCK 4Q 25, 58303 is a payload satellite owned by Planet (US) in SSO that was launched on Sat, 11 Nov 2023 UTC via an FALCON 9 launch vehicle from the Air Force Western Test Range (AFWTR). Payload-class satellites include a variety of spacecraft equipped with specific instruments for various scientific and technological missions. These include communications satellites like Starlink; space stations such as the ISS; scientific satellites like the Hubble; Earth observation satellites from companies like Planet Labs, Umbra, and HawkEye 360; GPS; miniature CubeSats for education and research; and military/defense satellites.

Not visible in the next 10 days
Identifier
58303, 2023-174AZ
Orbit
SSO
Country
Flag of USUS
Related business
Manufacturer
Planet
Mission
Non-operational Commercial Imaging
Bus & Motor
CUBESAT 3U, Unknown motor
Mass
5.7 kg wet, 5.7 kg dry
Launch date (UTC)
2023-11-11 (3 years ago)
Launch vehicle
FALCON 9
Launch site
Air Force Western Test Range (AFWTR)
Object type
Payload
Rocket body
Debris
Shape & HBR
Box + 2 Pan, 1.0 m
Radar Cross Section
0.072 m², Medium (>0.1 m² and < 1m²)

Expand to show TLE details & history
Last TLE update: 2 days ago

TLE from 2 days ago
0 FLOCK 4Q 25
1 58303U 23174AZ  26171.22315280  .01269519  95619-3  18048-2 0  9995
2 58303  97.3664 267.0677 0011871 259.3642 100.6302 16.05692150146569
Epoch: 2026-06-20T05:21Z
TLE epoch observation values (Epoch: 2026-06-20T05:21:20.401Z)
Latitude
-0.00011°
Longitude
-81.70815°
Altitude
263.357 km
Speed
7.748 km/s
True Right ascension
17h 48m 16s
True Declination
0° 00' 00"
Sunlit
Object was in full shadow at epoch
Visualization orbit readout
Latitude
Unknown
Longitude
Unknown
Altitude
Unknown
Speed
Unknown
Apparent Right ascension
Unknown
Apparent Declination
Unknown
Sunlit
N/A
Visualization observer readout
Local Sidereal Time
21:43:18
Azimuth
Unknown
Elevation
Unknown
Doppler factor
Unknown
Orbital elements
Apogee altitude
263.413 km
Perigee altitude
247.663 km
Semi-major axis
6,633.675 km
Eccentricity
0.00119
Inclination
97.3664°
RAAN
267.0677°
Arg. of periapsis
259.3642°
True anomaly
100.76386°
Mean anomaly
100.6302°
Eccentric anomaly
100.69703°
Mean motion
4.01709 °/min
Orbital period
89.62 mins
BSTAR
0.0018048
Loading maneuver chart data...
Computing Atmospheric mass density...

Documentation

Showing up to 5 results
|